| time (UTC) | temp F | wind direction | speed MPH | gust MPH | rain 1hr in | rain 24hr in | rain mn in | humidity % | barometer mb |
| 20260904115503 | 47 | 0 | 1.0 | 1.0 | 0.00 | 0.54 | 0.03 | 92 | 1011.6 |
| 20260904115003 | 47 | 0 | 1.0 | 1.0 | 0.00 | 0.54 | 0.03 | 92 | 1011.6 |
| 20260904114503 | 47 | 0 | 1.0 | 1.0 | 0.00 | 0.54 | 0.03 | 92 | 1011.6 |
| 20260904114003 | 47 | 0 | 1.0 | 1.0 | 0.00 | 0.54 | 0.03 | 92 | 1011.7 |
| 20260904113503 | 47 | 0 | 1.0 | 1.0 | 0.00 | 0.54 | 0.03 | 92 | 1011.7 |
| 20260904113003 | 47 | 0 | 1.0 | 1.0 | 0.00 | 0.54 | 0.03 | 92 | 1011.5 |
| 20260904112503 | 47 | 0 | 1.0 | 1.0 | 0.00 | 0.54 | 0.03 | 92 | 1011.5 |
| 20260904112003 | 47 | 0 | 1.0 | 1.0 | 0.00 | 0.54 | 0.03 | 92 | 1011.5 |
| 20260904111503 | 47 | 0 | 1.0 | 1.0 | 0.00 | 0.54 | 0.03 | 92 | 1011.3 |
| 20260904111003 | 47 | 0 | 1.0 | 1.0 | 0.00 | 0.54 | 0.03 | 92 | 1011.4 |
| 20260904110503 | 47 | 0 | 1.0 | 1.0 | 0.00 | 0.54 | 0.03 | 92 | 1011.3 |
| 20260904110003 | 47 | 0 | 0.0 | 0.0 | 0.00 | 0.54 | 0.03 | 92 | 1011.3 |
| 20260904105503 | 47 | 0 | 1.0 | 1.0 | 0.00 | 0.54 | 0.03 | 92 | 1011.3 |
| 20260904105003 | 47 | 0 | 1.0 | 1.0 | 0.00 | 0.54 | 0.03 | 93 | 1011.3 |
| 20260904104503 | 47 | 0 | 1.0 | 1.0 | 0.00 | 0.54 | 0.03 | 93 | 1011.2 |
| 20260904104003 | 47 | 0 | 1.0 | 1.0 | 0.00 | 0.54 | 0.03 | 93 | 1011.1 |
| 20260904103503 | 47 | 0 | 1.0 | 1.0 | 0.00 | 0.54 | 0.03 | 93 | 1011.2 |
| 20260904103003 | 47 | 0 | 2.0 | 2.0 | 0.00 | 0.54 | 0.03 | 93 | 1011.2 |
| 20260904102503 | 47 | 0 | 2.0 | 2.0 | 0.00 | 0.55 | 0.03 | 93 | 1011.2 |
| 20260904102003 | 47 | 0 | 0.0 | 0.0 | 0.01 | 0.55 | 0.03 | 93 | 1011.1 |
| 20260904101717 | 47 | 0 | 1.0 | 1.0 | 0.01 | 0.56 | 0.03 | 93 | 1011.1 |
| 20260904101218 | 47 | 0 | 3.0 | 3.0 | 0.01 | 0.57 | 0.03 | 92 | 1011.1 |
| 20260904100503 | 48 | 0 | 3.0 | 3.0 | 0.01 | 0.58 | 0.03 | 93 | 1011.1 |
| 20260904100003 | 48 | 0 | 1.0 | 1.0 | 0.01 | 0.59 | 0.03 | 92 | 1011.0 |
| 20260904095503 | 48 | 0 | 1.0 | 1.0 | 0.01 | 0.60 | 0.03 | 92 | 1010.9 |
| 20260904095003 | 48 | 0 | 1.0 | 1.0 | 0.01 | 0.63 | 0.03 | 92 | 1010.9 |
| 20260904094503 | 48 | 0 | 0.0 | 0.0 | 0.01 | 0.67 | 0.03 | 93 | 1011.0 |
| 20260904094003 | 48 | 0 | 0.0 | 0.0 | 0.01 | 0.73 | 0.03 | 92 | 1010.9 |
| 20260904093503 | 48 | 0 | 0.0 | 0.0 | 0.01 | 0.73 | 0.03 | 92 | 1010.9 |
| 20260904093003 | 48 | 0 | 0.0 | 0.0 | 0.01 | 0.73 | 0.03 | 92 | 1011.0 |
| 20260904092503 | 47 | 0 | 0.0 | 0.0 | 0.01 | 0.73 | 0.03 | 92 | 1011.1 |
| 20260904092003 | 47 | 0 | 0.0 | 0.0 | 0.00 | 0.72 | 0.02 | 92 | 1011.1 |
| 20260904091503 | 47 | 0 | 0.0 | 0.0 | 0.01 | 0.72 | 0.02 | 92 | 1010.9 |
| 20260904091003 | 47 | 0 | 0.0 | 0.0 | 0.01 | 0.73 | 0.02 | 92 | 1010.9 |
| 20260904090503 | 47 | 0 | 0.0 | 0.0 | 0.01 | 0.73 | 0.02 | 92 | 1010.8 |
| 20260904090004 | 47 | 0 | 0.0 | 0.0 | 0.01 | 0.74 | 0.02 | 92 | 1010.9 |
| 20260904085503 | 47 | 0 | 0.0 | 0.0 | 0.01 | 0.74 | 0.02 | 92 | 1011.1 |
| 20260904085003 | 47 | 0 | 0.0 | 0.0 | 0.01 | 0.74 | 0.02 | 92 | 1010.9 |
| 20260904084716 | 47 | 0 | 1.0 | 1.0 | 0.01 | 0.74 | 0.02 | 92 | 1010.8 |
| 20260904084005 | 47 | 0 | 1.0 | 1.0 | 0.01 | 0.75 | 0.02 | 92 | 1010.8 |
| 20260904083718 | 47 | 0 | 0.0 | 0.0 | 0.02 | 0.75 | 0.02 | 92 | 1010.7 |
| 20260904083003 | 47 | 0 | 0.0 | 0.0 | 0.02 | 0.76 | 0.02 | 92 | 1010.8 |
| 20260904082503 | 47 | 0 | 1.0 | 1.0 | 0.02 | 0.77 | 0.02 | 92 | 1010.8 |
| 20260904082003 | 47 | 0 | 1.0 | 1.0 | 0.02 | 0.78 | 0.02 | 92 | 1010.9 |
| 20260904081503 | 47 | 0 | 1.0 | 1.0 | 0.01 | 0.77 | 0.01 | 92 | 1010.9 |
| 20260904081003 | 48 | 0 | 2.0 | 2.0 | 0.01 | 0.78 | 0.01 | 92 | 1010.9 |
| 20260904080503 | 48 | 0 | 2.0 | 2.0 | 0.01 | 0.79 | 0.01 | 92 | 1011.0 |
| 20260904080003 | 48 | 0 | 0.0 | 1.0 | 0.01 | 0.79 | 0.01 | 92 | 1010.8 |
| 20260904075503 | 48 | 0 | 0.0 | 0.0 | 0.01 | 0.80 | 0.01 | 92 | 1010.8 |
| 20260904075003 | 47 | 0 | 0.0 | 0.0 | 0.01 | 0.80 | 0.01 | 92 | 1010.6 |
| 20260904074718 | 48 | 0 | 0.0 | 0.0 | 0.01 | 0.80 | 0.01 | 92 | 1010.7 |
| 20260904074003 | 48 | 0 | 0.0 | 0.0 | 0.01 | 0.81 | 0.01 | 92 | 1010.8 |
| 20260904073503 | 48 | 0 | 0.0 | 0.0 | 0.00 | 0.81 | 0.00 | 92 | 1010.7 |
| 20260904073003 | 48 | 0 | 0.0 | 0.0 | 0.00 | 0.82 | 0.00 | 92 | 1010.7 |
| 20260904072503 | 48 | 0 | 0.0 | 0.0 | 0.00 | 0.82 | 0.00 | 92 | 1010.6 |
| 20260904072003 | 48 | 0 | 0.0 | 0.0 | 0.00 | 0.82 | 0.00 | 92 | 1010.5 |
| 20260904071503 | 48 | 0 | 0.0 | 1.0 | 0.01 | 0.83 | 0.00 | 92 | 1010.5 |
| 20260904071003 | 48 | 0 | 3.0 | 3.0 | 0.01 | 0.83 | 0.00 | 92 | 1010.3 |
| 20260904070718 | 48 | 0 | 0.0 | 3.0 | 0.01 | 0.83 | 0.00 | 92 | 1010.3 |
| 20260904070005 | 48 | 156 | 1.0 | 3.0 | 0.02 | 0.84 | 0.00 | 92 | 1010.1 |
| 20260904065718 | 48 | 178 | 1.0 | 3.0 | 0.02 | 0.84 | 0.84 | 92 | 1010.1 |
| 20260904065217 | 48 | 174 | 3.0 | 7.0 | 0.03 | 0.84 | 0.84 | 91 | 1009.9 |
| 20260904064503 | 48 | 186 | 4.0 | 6.0 | 0.05 | 0.85 | 0.84 | 91 | 1010.1 |
| 20260904064003 | 48 | 189 | 4.0 | 7.0 | 0.07 | 0.85 | 0.84 | 92 | 1010.3 |
| 20260904063718 | 48 | 192 | 4.0 | 7.0 | 0.08 | 0.85 | 0.84 | 92 | 1010.5 |
| 20260904063003 | 48 | 198 | 5.0 | 7.0 | 0.10 | 0.85 | 0.84 | 92 | 1010.4 |
| 20260904062503 | 48 | 194 | 5.0 | 10.0 | 0.12 | 0.85 | 0.84 | 92 | 1010.4 |
| 20260904062003 | 48 | 189 | 5.0 | 10.0 | 0.13 | 0.85 | 0.84 | 92 | 1010.4 |
| 20260904061503 | 48 | 195 | 4.0 | 9.0 | 0.13 | 0.84 | 0.83 | 92 | 1010.4 |
| 20260904061003 | 48 | 200 | 3.0 | 8.0 | 0.15 | 0.84 | 0.83 | 92 | 1010.3 |
| 20260904060503 | 48 | 199 | 3.0 | 7.0 | 0.16 | 0.84 | 0.83 | 92 | 1010.3 |
| 20260904060003 | 48 | 197 | 4.0 | 7.0 | 0.16 | 0.83 | 0.82 | 92 | 1010.3 |
| 20260904055503 | 49 | 200 | 5.0 | 7.0 | 0.15 | 0.82 | 0.81 | 92 | 1010.4 |
| 20260904055003 | 49 | 205 | 5.0 | 11.0 | 0.14 | 0.81 | 0.80 | 92 | 1010.5 |
| 20260904054503 | 49 | 207 | 5.0 | 11.0 | 0.14 | 0.80 | 0.79 | 92 | 1010.7 |
| 20260904054216 | 49 | 207 | 5.0 | 9.0 | 0.13 | 0.79 | 0.78 | 92 | 1010.7 |
| 20260904053503 | 49 | 206 | 4.0 | 9.0 | 0.11 | 0.76 | 0.75 | 92 | 1010.7 |
| 20260904053003 | 49 | 205 | 5.0 | 8.0 | 0.11 | 0.75 | 0.74 | 91 | 1010.7 |
| 20260904052503 | 49 | 206 | 5.0 | 8.0 | 0.10 | 0.73 | 0.72 | 91 | 1010.7 |
| 20260904052003 | 49 | 207 | 5.0 | 8.0 | 0.10 | 0.72 | 0.71 | 91 | 1010.7 |
| 20260904051717 | 49 | 206 | 5.0 | 8.0 | 0.09 | 0.71 | 0.70 | 91 | 1010.7 |
| 20260904051003 | 49 | 205 | 6.0 | 10.0 | 0.09 | 0.69 | 0.68 | 91 | 1010.8 |
| 20260904050503 | 49 | 204 | 5.0 | 10.0 | 0.09 | 0.68 | 0.67 | 91 | 1010.8 |
| 20260904050003 | 49 | 205 | 5.0 | 9.0 | 0.08 | 0.67 | 0.66 | 91 | 1010.7 |
| 20260904045503 | 49 | 207 | 4.0 | 8.0 | 0.09 | 0.67 | 0.66 | 91 | 1010.6 |
| 20260904045218 | 49 | 207 | 3.0 | 8.0 | 0.09 | 0.67 | 0.66 | 91 | 1010.6 |
| 20260904044503 | 49 | 211 | 3.0 | 7.0 | 0.09 | 0.66 | 0.65 | 91 | 1010.7 |
| 20260904044003 | 49 | 212 | 3.0 | 7.0 | 0.09 | 0.66 | 0.65 | 91 | 1010.8 |
| 20260904043717 | 49 | 208 | 4.0 | 6.0 | 0.09 | 0.65 | 0.65 | 91 | 1010.9 |
| 20260904043003 | 49 | 204 | 5.0 | 8.0 | 0.08 | 0.64 | 0.63 | 90 | 1010.8 |
| 20260904042503 | 49 | 205 | 5.0 | 8.0 | 0.08 | 0.63 | 0.62 | 90 | 1010.8 |
| 20260904042003 | 49 | 206 | 5.0 | 10.0 | 0.08 | 0.62 | 0.61 | 90 | 1010.7 |
| 20260904041503 | 49 | 206 | 5.0 | 10.0 | 0.08 | 0.61 | 0.60 | 90 | 1010.8 |
| 20260904041003 | 49 | 206 | 5.0 | 9.0 | 0.07 | 0.60 | 0.59 | 90 | 1010.7 |
| 20260904040503 | 49 | 205 | 5.0 | 9.0 | 0.07 | 0.59 | 0.58 | 89 | 1010.7 |
| 20260904040218 | 49 | 206 | 5.0 | 9.0 | 0.08 | 0.59 | 0.58 | 90 | 1010.6 |
| 20260904035503 | 49 | 205 | 5.0 | 10.0 | 0.08 | 0.58 | 0.57 | 90 | 1010.7 |
| 20260904035003 | 49 | 204 | 5.0 | 10.0 | 0.09 | 0.58 | 0.57 | 90 | 1010.7 |
| 20260904034503 | 49 | 205 | 6.0 | 10.0 | 0.08 | 0.57 | 0.56 | 89 | 1010.6 |
| 20260904034003 | 49 | 203 | 7.0 | 11.0 | 0.09 | 0.57 | 0.56 | 90 | 1010.6 |
| 20260904033503 | 49 | 204 | 6.0 | 11.0 | 0.09 | 0.56 | 0.55 | 89 | 1010.6 |
| 20260904033003 | 50 | 199 | 5.0 | 10.0 | 0.11 | 0.56 | 0.55 | 90 | 1010.5 |
| 20260904032503 | 50 | 187 | 4.0 | 9.0 | 0.11 | 0.55 | 0.54 | 90 | 1010.6 |
| 20260904032003 | 50 | 183 | 4.0 | 7.0 | 0.11 | 0.54 | 0.53 | 90 | 1010.7 |
| 20260904031503 | 50 | 182 | 4.0 | 6.0 | 0.11 | 0.53 | 0.53 | 90 | 1010.8 |
| 20260904031003 | 50 | 189 | 3.0 | 7.0 | 0.12 | 0.53 | 0.52 | 90 | 1010.8 |
| 20260904030503 | 50 | 185 | 2.0 | 7.0 | 0.12 | 0.52 | 0.51 | 89 | 1010.8 |
| 20260904030003 | 50 | 162 | 1.0 | 5.0 | 0.12 | 0.51 | 0.50 | 89 | 1010.7 |
| 20260904025503 | 50 | 168 | 1.0 | 3.0 | 0.12 | 0.50 | 0.49 | 88 | 1010.7 |
| 20260904025003 | 50 | 187 | 1.0 | 4.0 | 0.12 | 0.49 | 0.48 | 88 | 1010.5 |
| 20260904024503 | 50 | 192 | 0.0 | 4.0 | 0.13 | 0.49 | 0.48 | 88 | 1010.5 |
| 20260904024003 | 50 | 0 | 0.0 | 4.0 | 0.12 | 0.48 | 0.47 | 89 | 1010.5 |
| 20260904023718 | 50 | 0 | 0.0 | 4.0 | 0.11 | 0.47 | 0.46 | 88 | 1010.5 |
| 20260904023003 | 50 | 0 | 0.0 | 2.0 | 0.09 | 0.45 | 0.44 | 87 | 1010.4 |
| 20260904022718 | 50 | 133 | 0.0 | 2.0 | 0.09 | 0.45 | 0.44 | 86 | 1010.3 |
| 20260904022003 | 51 | 89 | 1.0 | 2.0 | 0.07 | 0.43 | 0.42 | 85 | 1010.1 |
| 20260904021503 | 51 | 69 | 1.0 | 3.0 | 0.06 | 0.42 | 0.41 | 84 | 1010.1 |
| 20260904021003 | 51 | 74 | 0.0 | 3.0 | 0.05 | 0.41 | 0.40 | 83 | 1010.0 |
| 20260904020503 | 52 | 106 | 0.0 | 2.0 | 0.04 | 0.40 | 0.39 | 79 | 1010.0 |
| 20260904020003 | 52 | 108 | 1.0 | 2.0 | 0.03 | 0.39 | 0.38 | 80 | 1009.8 |
| 20260904015503 | 52 | 181 | 2.0 | 7.0 | 0.02 | 0.38 | 0.37 | 79 | 1009.9 |
| 20260904015003 | 53 | 189 | 1.0 | 7.0 | 0.01 | 0.38 | 0.36 | 77 | 1009.7 |
| 20260904014503 | 54 | 192 | 0.0 | 6.0 | 0.00 | 0.40 | 0.35 | 73 | 1009.7 |
| 20260904014003 | 54 | 97 | 1.0 | 1.0 | 0.00 | 0.42 | 0.35 | 71 | 1009.7 |
| 20260904013503 | 54 | 119 | 1.0 | 7.0 | 0.00 | 0.42 | 0.35 | 68 | 1009.7 |
| 20260904013003 | 55 | 105 | 2.0 | 9.0 | 0.00 | 0.42 | 0.35 | 68 | 1009.7 |
| 20260904012503 | 55 | 92 | 2.0 | 9.0 | 0.00 | 0.42 | 0.35 | 66 | 1009.6 |
| 20260904012003 | 55 | 93 | 1.0 | 8.0 | 0.00 | 0.42 | 0.35 | 66 | 1009.5 |
| 20260904011503 | 56 | 103 | 1.0 | 8.0 | 0.00 | 0.42 | 0.35 | 64 | 1009.5 |
| 20260904011003 | 56 | 106 | 2.0 | 8.0 | 0.00 | 0.42 | 0.35 | 65 | 1009.6 |
| 20260904010503 | 56 | 108 | 1.0 | 6.0 | 0.00 | 0.42 | 0.35 | 64 | 1009.6 |
| 20260904010003 | 57 | 110 | 1.0 | 6.0 | 0.00 | 0.42 | 0.35 | 68 | 1009.6 |
| 20260904005503 | 57 | 122 | 1.0 | 5.0 | 0.00 | 0.42 | 0.35 | 73 | 1009.9 |
| 20260904005003 | 58 | 114 | 2.0 | 6.0 | 0.00 | 0.42 | 0.35 | 75 | 1009.7 |
| 20260904004503 | 58 | 131 | 2.0 | 7.0 | 0.00 | 0.42 | 0.35 | 74 | 1009.7 |
| 20260904004003 | 58 | 140 | 2.0 | 7.0 | 0.00 | 0.42 | 0.35 | 69 | 1009.9 |
| 20260904003503 | 58 | 101 | 3.0 | 6.0 | 0.00 | 0.42 | 0.35 | 73 | 1009.9 |
| 20260904003003 | 59 | 95 | 2.0 | 9.0 | 0.00 | 0.42 | 0.35 | 71 | 1009.7 |
| 20260904002503 | 59 | 96 | 1.0 | 9.0 | 0.00 | 0.42 | 0.35 | 70 | 1009.8 |
| 20260904002005 | 59 | 100 | 0.0 | 2.0 | 0.00 | 0.42 | 0.35 | 69 | 1010.0 |
| 20260904001503 | 59 | 0 | 0.0 | 1.0 | 0.00 | 0.42 | 0.35 | 68 | 1010.1 |
| 20260904001003 | 59 | 0 | 0.0 | 1.0 | 0.00 | 0.42 | 0.35 | 68 | 1010.3 |
| 20260904000503 | 59 | 0 | 0.0 | 2.0 | 0.00 | 0.42 | 0.35 | 68 | 1010.2 |
| 20260904000003 | 60 | 0 | 0.0 | 2.0 | 0.00 | 0.42 | 0.35 | 66 | 1010.2 |
| 20260903235503 | 60 | 174 | 0.0 | 2.0 | 0.00 | 0.42 | 0.35 | 66 | 1010.2 |
| 20260903235003 | 60 | 84 | 0.0 | 2.0 | 0.00 | 0.42 | 0.35 | 67 | 1010.2 |
| 20260903234717 | 60 | 254 | 1.0 | 2.0 | 0.00 | 0.42 | 0.35 | 67 | 1010.2 |
| 20260903234218 | 60 | 317 | 1.0 | 2.0 | 0.00 | 0.42 | 0.35 | 66 | 1010.3 |
| 20260903233503 | 60 | 24 | 1.0 | 4.0 | 0.00 | 0.42 | 0.35 | 65 | 1010.4 |
| 20260903233003 | 60 | 62 | 1.0 | 3.0 | 0.00 | 0.42 | 0.35 | 65 | 1010.4 |
| 20260903232503 | 60 | 42 | 0.0 | 3.0 | 0.00 | 0.42 | 0.35 | 64 | 1010.4 |
| 20260903232003 | 61 | 281 | 0.0 | 2.0 | 0.00 | 0.42 | 0.35 | 66 | 1010.4 |
| 20260903231503 | 61 | 308 | 1.0 | 2.0 | 0.00 | 0.42 | 0.35 | 64 | 1010.5 |
| 20260903231003 | 61 | 93 | 1.0 | 7.0 | 0.00 | 0.42 | 0.35 | 65 | 1010.4 |
| 20260903230717 | 61 | 95 | 1.0 | 7.0 | 0.00 | 0.42 | 0.35 | 65 | 1010.4 |
| 20260903230003 | 61 | 204 | 0.0 | 3.0 | 0.00 | 0.42 | 0.35 | 64 | 1010.4 |
| 20260903225503 | 61 | 270 | 1.0 | 3.0 | 0.00 | 0.42 | 0.35 | 65 | 1010.4 |
| 20260903225003 | 61 | 353 | 1.0 | 4.0 | 0.00 | 0.42 | 0.35 | 66 | 1010.7 |
| 20260903224503 | 61 | 337 | 1.0 | 5.0 | 0.00 | 0.42 | 0.35 | 64 | 1010.7 |
| 20260903224218 | 62 | 348 | 1.0 | 5.0 | 0.00 | 0.42 | 0.35 | 64 | 1010.8 |
| 20260903223717 | 62 | 37 | 1.0 | 5.0 | 0.00 | 0.42 | 0.35 | 66 | 1010.9 |
| 20260903223003 | 62 | 80 | 1.0 | 5.0 | 0.00 | 0.42 | 0.35 | 65 | 1010.9 |
| 20260903222504 | 62 | 78 | 1.0 | 5.0 | 0.00 | 0.42 | 0.35 | 65 | 1010.9 |
| 20260903222218 | 61 | 82 | 1.0 | 5.0 | 0.00 | 0.42 | 0.35 | 63 | 1010.8 |
| 20260903221503 | 61 | 86 | 1.0 | 5.0 | 0.00 | 0.42 | 0.35 | 64 | 1010.9 |
| 20260903221003 | 62 | 88 | 1.0 | 5.0 | 0.00 | 0.42 | 0.35 | 62 | 1011.1 |
| 20260903220503 | 62 | 94 | 1.0 | 5.0 | 0.00 | 0.42 | 0.35 | 63 | 1011.1 |
| 20260903220003 | 62 | 99 | 1.0 | 4.0 | 0.00 | 0.42 | 0.35 | 63 | 1011.0 |
| 20260903215503 | 62 | 83 | 1.0 | 4.0 | 0.00 | 0.42 | 0.35 | 63 | 1011.0 |
| 20260903215003 | 62 | 60 | 1.0 | 3.0 | 0.00 | 0.42 | 0.35 | 63 | 1011.1 |
| 20260903214503 | 62 | 83 | 1.0 | 4.0 | 0.00 | 0.42 | 0.35 | 61 | 1011.1 |
| 20260903214003 | 62 | 83 | 1.0 | 4.0 | 0.00 | 0.42 | 0.35 | 64 | 1011.2 |
| 20260903213503 | 62 | 70 | 1.0 | 4.0 | 0.00 | 0.42 | 0.35 | 62 | 1011.2 |
| 20260903213003 | 62 | 58 | 1.0 | 3.0 | 0.00 | 0.42 | 0.35 | 64 | 1011.2 |
| 20260903212503 | 62 | 47 | 1.0 | 4.0 | 0.00 | 0.42 | 0.35 | 62 | 1011.2 |
| 20260903212003 | 63 | 56 | 1.0 | 4.0 | 0.00 | 0.42 | 0.35 | 63 | 1011.2 |
| 20260903211503 | 63 | 39 | 1.0 | 6.0 | 0.00 | 0.42 | 0.35 | 67 | 1011.3 |
| 20260903211003 | 63 | 43 | 1.0 | 6.0 | 0.00 | 0.42 | 0.35 | 63 | 1011.3 |
| 20260903210718 | 63 | 62 | 1.0 | 4.0 | 0.00 | 0.42 | 0.35 | 64 | 1011.4 |
| 20260903210217 | 63 | 77 | 1.0 | 5.0 | 0.00 | 0.42 | 0.35 | 67 | 1011.6 |
| 20260903205505 | 62 | 56 | 1.0 | 4.0 | 0.00 | 0.42 | 0.35 | 66 | 1011.6 |
| 20260903205003 | 61 | 61 | 1.0 | 4.0 | 0.00 | 0.42 | 0.35 | 67 | 1011.5 |
| 20260903204503 | 61 | 61 | 0.0 | 4.0 | 0.00 | 0.42 | 0.35 | 71 | 1011.5 |
| 20260903204217 | 61 | 48 | 0.0 | 2.0 | 0.00 | 0.42 | 0.35 | 70 | 1011.5 |
| 20260903203503 | 60 | 72 | 1.0 | 4.0 | 0.00 | 0.42 | 0.35 | 72 | 1011.6 |
| 20260903203004 | 60 | 55 | 1.0 | 3.0 | 0.00 | 0.42 | 0.35 | 71 | 1011.7 |
| 20260903202503 | 60 | 39 | 1.0 | 3.0 | 0.00 | 0.42 | 0.35 | 71 | 1011.7 |
| 20260903202003 | 60 | 46 | 0.0 | 3.0 | 0.00 | 0.42 | 0.35 | 71 | 1011.7 |
| 20260903201503 | 60 | 0 | 0.0 | 3.0 | 0.00 | 0.42 | 0.35 | 72 | 1011.8 |
| 20260903201003 | 61 | 334 | 0.0 | 3.0 | 0.00 | 0.42 | 0.35 | 72 | 1011.8 |
| 20260903200503 | 61 | 319 | 1.0 | 3.0 | 0.00 | 0.42 | 0.35 | 72 | 1011.8 |
| 20260903200217 | 60 | 46 | 1.0 | 2.0 | 0.00 | 0.42 | 0.35 | 73 | 1011.8 |
| 20260903195718 | 60 | 61 | 1.0 | 4.0 | 0.00 | 0.42 | 0.35 | 73 | 1011.8 |
| 20260903195003 | 60 | 44 | 1.0 | 3.0 | 0.00 | 0.42 | 0.35 | 74 | 1012.0 |
| 20260903194503 | 60 | 58 | 1.0 | 3.0 | 0.00 | 0.42 | 0.35 | 75 | 1011.9 |
| 20260903194003 | 60 | 12 | 1.0 | 3.0 | 0.00 | 0.42 | 0.35 | 73 | 1012.0 |
| 20260903193503 | 60 | 323 | 1.0 | 3.0 | 0.00 | 0.42 | 0.35 | 72 | 1012.1 |
| 20260903193217 | 60 | 328 | 1.0 | 4.0 | 0.00 | 0.42 | 0.35 | 74 | 1012.1 |
| 20260903192503 | 60 | 59 | 0.0 | 4.0 | 0.00 | 0.42 | 0.35 | 76 | 1012.3 |
| 20260903192003 | 59 | 312 | 0.0 | 3.0 | 0.00 | 0.42 | 0.35 | 79 | 1012.3 |
| 20260903191503 | 58 | 301 | 0.0 | 3.0 | 0.00 | 0.42 | 0.35 | 78 | 1012.3 |
| 20260903191003 | 58 | 291 | 0.0 | 2.0 | 0.00 | 0.42 | 0.35 | 79 | 1012.5 |
| 20260903190503 | 58 | 306 | 0.0 | 3.0 | 0.00 | 0.42 | 0.35 | 81 | 1012.4 |
| 20260903190003 | 58 | 0 | 0.0 | 3.0 | 0.00 | 0.42 | 0.35 | 77 | 1012.6 |
| 20260903185503 | 58 | 0 | 0.0 | 3.0 | 0.00 | 0.42 | 0.35 | 79 | 1012.6 |
| 20260903185003 | 58 | 0 | 0.0 | 3.0 | 0.00 | 0.42 | 0.35 | 77 | 1012.6 |
| 20260903184503 | 58 | 0 | 0.0 | 3.0 | 0.00 | 0.42 | 0.35 | 79 | 1012.6 |
| 20260903184218 | 58 | 0 | 0.0 | 3.0 | 0.00 | 0.42 | 0.35 | 77 | 1012.6 |
| 20260903183503 | 58 | 75 | 0.0 | 3.0 | 0.00 | 0.42 | 0.35 | 78 | 1012.6 |
| 20260903183003 | 58 | 85 | 1.0 | 4.0 | 0.00 | 0.42 | 0.35 | 80 | 1012.7 |
| 20260903182503 | 58 | 97 | 1.0 | 4.0 | 0.00 | 0.42 | 0.35 | 80 | 1012.6 |
| 20260903182003 | 58 | 88 | 1.0 | 3.0 | 0.00 | 0.42 | 0.35 | 78 | 1012.6 |
| 20260903181503 | 58 | 81 | 0.0 | 3.0 | 0.00 | 0.42 | 0.35 | 83 | 1012.5 |
| 20260903181218 | 58 | 76 | 0.0 | 3.0 | 0.00 | 0.42 | 0.35 | 83 | 1012.6 |
| 20260903180717 | 57 | 83 | 1.0 | 2.0 | 0.00 | 0.42 | 0.35 | 84 | 1012.7 |
| 20260903180003 | 56 | 91 | 1.0 | 4.0 | 0.00 | 0.42 | 0.35 | 86 | 1012.7 |
| 20260903175503 | 56 | 93 | 0.0 | 3.0 | 0.00 | 0.42 | 0.35 | 85 | 1012.7 |
| 20260903175003 | 56 | 0 | 0.0 | 5.0 | 0.00 | 0.42 | 0.35 | 86 | 1012.7 |
| 20260903174503 | 56 | 0 | 0.0 | 5.0 | 0.00 | 0.42 | 0.35 | 86 | 1012.7 |
| 20260903174003 | 56 | 0 | 0.0 | 2.0 | 0.00 | 0.42 | 0.35 | 86 | 1012.7 |
| 20260903173503 | 56 | 0 | 0.0 | 2.0 | 0.00 | 0.42 | 0.35 | 86 | 1012.6 |
| 20260903173003 | 56 | 0 | 0.0 | 1.0 | 0.00 | 0.42 | 0.35 | 89 | 1012.7 |
| 20260903172503 | 55 | 0 | 0.0 | 1.0 | 0.00 | 0.42 | 0.35 | 88 | 1012.7 |
| 20260903172003 | 55 | 0 | 0.0 | 1.0 | 0.00 | 0.42 | 0.35 | 89 | 1012.6 |
| 20260903171717 | 55 | 0 | 0.0 | 1.0 | 0.00 | 0.42 | 0.35 | 90 | 1012.6 |
| 20260903171218 | 54 | 0 | 0.0 | 1.0 | 0.00 | 0.42 | 0.35 | 89 | 1012.7 |
| 20260903170503 | 54 | 0 | 0.0 | 2.0 | 0.00 | 0.42 | 0.35 | 90 | 1012.6 |
| 20260903170003 | 54 | 0 | 0.0 | 2.0 | 0.00 | 0.42 | 0.35 | 90 | 1012.6 |
| 20260903165503 | 54 | 159 | 0.0 | 1.0 | 0.00 | 0.42 | 0.35 | 90 | 1012.6 |
| 20260903165003 | 53 | 158 | 1.0 | 3.0 | 0.01 | 0.42 | 0.35 | 90 | 1012.5 |
| 20260903164503 | 53 | 160 | 1.0 | 4.0 | 0.01 | 0.42 | 0.35 | 90 | 1012.4 |
| 20260903164003 | 53 | 141 | 0.0 | 4.0 | 0.02 | 0.42 | 0.35 | 91 | 1012.5 |
| 20260903163503 | 53 | 0 | 0.0 | 2.0 | 0.02 | 0.42 | 0.35 | 91 | 1012.5 |
| 20260903163003 | 53 | 0 | 0.0 | 1.0 | 0.02 | 0.42 | 0.35 | 91 | 1012.4 |
| 20260903162503 | 53 | 0 | 0.0 | 2.0 | 0.02 | 0.42 | 0.35 | 91 | 1012.3 |
| 20260903162003 | 53 | 0 | 0.0 | 2.0 | 0.02 | 0.42 | 0.35 | 92 | 1012.4 |
| 20260903161716 | 52 | 0 | 0.0 | 1.0 | 0.02 | 0.42 | 0.35 | 91 | 1012.3 |
| 20260903161003 | 53 | 0 | 0.0 | 1.0 | 0.02 | 0.42 | 0.35 | 92 | 1012.3 |
| 20260903160503 | 53 | 0 | 0.0 | 1.0 | 0.02 | 0.42 | 0.35 | 92 | 1012.2 |
| 20260903160217 | 53 | 0 | 0.0 | 1.0 | 0.02 | 0.42 | 0.35 | 92 | 1012.2 |
| 20260903155503 | 52 | 0 | 0.0 | 1.0 | 0.02 | 0.42 | 0.35 | 92 | 1012.3 |
| 20260903155003 | 52 | 0 | 0.0 | 0.0 | 0.01 | 0.41 | 0.34 | 92 | 1012.3 |
| 20260903154503 | 52 | 0 | 0.0 | 1.0 | 0.01 | 0.42 | 0.34 | 92 | 1012.4 |
| 20260903154003 | 52 | 0 | 0.0 | 1.0 | 0.00 | 0.41 | 0.33 | 92 | 1012.4 |
| 20260903153503 | 52 | 0 | 0.0 | 1.0 | 0.00 | 0.41 | 0.33 | 92 | 1012.4 |
| 20260903153003 | 52 | 0 | 0.0 | 1.0 | 0.00 | 0.41 | 0.33 | 92 | 1012.4 |
| 20260903152503 | 52 | 0 | 0.0 | 1.0 | 0.00 | 0.41 | 0.33 | 92 | 1012.4 |
| 20260903152217 | 52 | 0 | 0.0 | 0.0 | 0.00 | 0.42 | 0.33 | 92 | 1012.4 |
| 20260903151503 | 52 | 0 | 0.0 | 1.0 | 0.00 | 0.42 | 0.33 | 92 | 1012.4 |
| 20260903151003 | 51 | 0 | 0.0 | 1.0 | 0.00 | 0.42 | 0.33 | 92 | 1012.3 |
| 20260903150503 | 51 | 0 | 0.0 | 1.0 | 0.00 | 0.42 | 0.33 | 92 | 1012.3 |
| 20260903150003 | 51 | 0 | 0.0 | 1.0 | 0.00 | 0.42 | 0.33 | 92 | 1012.2 |
| 20260903145503 | 51 | 0 | 0.0 | 1.0 | 0.00 | 0.42 | 0.33 | 92 | 1012.2 |
| 20260903145003 | 50 | 0 | 0.0 | 0.0 | 0.00 | 0.42 | 0.33 | 92 | 1012.1 |
| 20260903144503 | 50 | 0 | 0.0 | 0.0 | 0.00 | 0.42 | 0.33 | 92 | 1012.2 |
| 20260903144003 | 50 | 0 | 0.0 | 0.0 | 0.00 | 0.42 | 0.33 | 92 | 1012.3 |
| 20260903143718 | 50 | 0 | 0.0 | 0.0 | 0.00 | 0.42 | 0.33 | 92 | 1012.2 |
| 20260903143217 | 50 | 0 | 0.0 | 0.0 | 0.00 | 0.42 | 0.33 | 92 | 1012.2 |
| 20260903142503 | 50 | 0 | 0.0 | 0.0 | 0.00 | 0.42 | 0.33 | 92 | 1012.1 |
| 20260903142003 | 50 | 0 | 0.0 | 0.0 | 0.00 | 0.42 | 0.33 | 91 | 1012.0 |
| 20260903141503 | 51 | 0 | 0.0 | 0.0 | 0.00 | 0.42 | 0.33 | 91 | 1012.0 |
| 20260903141003 | 51 | 0 | 0.0 | 0.0 | 0.00 | 0.42 | 0.33 | 91 | 1011.9 |
| 20260903140503 | 51 | 0 | 0.0 | 0.0 | 0.00 | 0.42 | 0.33 | 91 | 1011.9 |
| 20260903140003 | 51 | 0 | 0.0 | 0.0 | 0.00 | 0.42 | 0.33 | 91 | 1011.9 |
| 20260903135503 | 51 | 0 | 0.0 | 0.0 | 0.00 | 0.42 | 0.33 | 91 | 1011.9 |
| 20260903135003 | 51 | 0 | 0.0 | 0.0 | 0.00 | 0.42 | 0.33 | 91 | 1011.8 |
| 20260903134717 | 51 | 0 | 0.0 | 0.0 | 0.00 | 0.42 | 0.33 | 91 | 1011.9 |
| 20260903134003 | 51 | 0 | 0.0 | 0.0 | 0.00 | 0.42 | 0.33 | 91 | 1011.9 |
| 20260903133717 | 51 | 0 | 0.0 | 0.0 | 0.00 | 0.42 | 0.33 | 91 | 1011.7 |
| 20260903133003 | 51 | 0 | 0.0 | 0.0 | 0.00 | 0.42 | 0.33 | 91 | 1011.8 |
| 20260903132503 | 51 | 0 | 0.0 | 0.0 | 0.00 | 0.42 | 0.33 | 91 | 1011.7 |
| 20260903132003 | 51 | 0 | 0.0 | 0.0 | 0.00 | 0.42 | 0.33 | 91 | 1011.6 |
| 20260903131503 | 51 | 0 | 0.0 | 0.0 | 0.00 | 0.42 | 0.33 | 91 | 1011.6 |
| 20260903131003 | 51 | 0 | 0.0 | 0.0 | 0.00 | 0.42 | 0.33 | 91 | 1011.3 |
| 20260903130503 | 51 | 0 | 0.0 | 0.0 | 0.00 | 0.42 | 0.33 | 91 | 1011.3 |
| 20260903130004 | 51 | 0 | 0.0 | 0.0 | 0.00 | 0.42 | 0.33 | 91 | 1011.3 |
| 20260903125503 | 51 | 0 | 0.0 | 0.0 | 0.00 | 0.42 | 0.33 | 91 | 1011.2 |
| 20260903125003 | 51 | 0 | 0.0 | 0.0 | 0.00 | 0.42 | 0.33 | 91 | 1011.2 |
| 20260903124503 | 51 | 0 | 0.0 | 0.0 | 0.00 | 0.42 | 0.33 | 91 | 1011.1 |
| 20260903124003 | 51 | 0 | 0.0 | 0.0 | 0.00 | 0.42 | 0.33 | 91 | 1011.1 |
| 20260903123717 | 51 | 0 | 0.0 | 0.0 | 0.00 | 0.42 | 0.33 | 91 | 1011.1 |
| 20260903123003 | 51 | 0 | 0.0 | 0.0 | 0.00 | 0.42 | 0.33 | 91 | 1011.0 |
| 20260903122717 | 51 | 0 | 0.0 | 0.0 | 0.00 | 0.42 | 0.33 | 91 | 1010.9 |
| 20260903122003 | 51 | 0 | 0.0 | 0.0 | 0.00 | 0.42 | 0.33 | 91 | 1010.9 |
| 20260903121503 | 51 | 0 | 0.0 | 0.0 | 0.00 | 0.42 | 0.33 | 91 | 1010.9 |
| 20260903121003 | 51 | 0 | 0.0 | 0.0 | 0.00 | 0.42 | 0.33 | 91 | 1010.8 |
| 20260903120503 | 51 | 0 | 0.0 | 0.0 | 0.00 | 0.42 | 0.33 | 91 | 1010.7 |
| 20260903120003 | 51 | 0 | 0.0 | 0.0 | 0.00 | 0.42 | 0.33 | 91 | 1010.8 |